Home > Weather > Decatur > Past weeks

Flag for USA Past Weather in Decatur, Illinois, USA — Yesterday and Last 2 Weeks

Now
73 °F

Overcast.


Feels Like: 77 °F
Forecast: 57 / 78 °F
Wind: 12 mph from South

Location: Decatur Airport

Current Time: Jun 30, 2016 at 9:15:25 AM

Latest Report: Jun 30, 2016 at 8:54 AM


Visibility: 10 mi

Pressure: 30.04 "Hg

Humidity: 53%

Dew Point: 55 °F

Location of DecaturLocation

Past Weather in Decatur — Graph

°F

Decatur Temperature Yesterday

Maximum temperature yesterday: 78 °F (at 3:54 PM)
Minimum temperature yesterday: 52 °F (at 3:54 AM)
Average temperature yesterday: 66 °F

High & Low Weather Summary for the Past Weeks

 TemperatureHumidityPressure
High93 °F (Jun 15, 3:54 PM)94% (Jun 24, 5:54 AM)30.23 "Hg (Jun 24, 5:54 AM)
Low52 °F (Jun 29, 3:54 AM)33% (Jun 27, 2:54 PM)29.74 "Hg (Jun 15, 2:54 PM)
Average78 °F64%30.01 "Hg
* Reported Jun 15 7:54 AM — Jun 30 7:54 AM, Decatur, Weather by CustomWeather, © 2016

Note: Actual official high and low records may vary slightly from our data, if they occured in-between our weather recording intervals... More about our weather records

Advertising

Decatur Weather History for the Previous 24 Hours

Scroll right to see more
 ConditionsComfort  
Time TempWeatherWind HumidityBarometerVisibility
7:54 AM
Thu, Jun 30
69 °FSunny.6 mph63%30.05 "Hg10 mi
6:54 AM64 °FSunny.6 mph68%30.04 "Hg10 mi
5:54 AM56 °FClear.3 mph84%30.03 "Hg10 mi
4:54 AM56 °FClear.No wind84%30.04 "Hg10 mi
3:54 AM58 °FClear.No wind78%30.04 "Hg10 mi
2:54 AM59 °FClear.No wind78%30.06 "Hg10 mi
1:54 AM58 °FClear.No wind84%30.06 "Hg10 mi
12:54 AM61 °FClear.No wind75%30.07 "Hg10 mi
11:54 PM
Wed, Jun 29
59 °FClear.No wind81%30.07 "Hg10 mi
10:54 PM61 °FClear.No wind75%30.07 "Hg10 mi
9:54 PM64 °FClear.No wind68%30.06 "Hg10 mi
8:54 PM67 °FSunny.No wind63%30.05 "Hg10 mi
7:54 PM73 °FSunny.3 mph48%30.06 "Hg10 mi
6:54 PM77 °FSunny.3 mph37%30.05 "Hg10 mi
5:54 PM78 °FSunny.5 mph35%30.06 "Hg10 mi
4:54 PM77 °FSunny.3 mph36%30.08 "Hg10 mi
3:54 PM78 °FSunny.5 mph35%30.09 "Hg10 mi
2:54 PM77 °FSunny.3 mph37%30.11 "Hg10 mi
1:54 PM77 °FSunny.7 mph37%30.12 "Hg10 mi
12:54 PM75 °FSunny.No wind42%30.14 "Hg10 mi
11:54 AM74 °FSunny.10 mph41%30.14 "Hg10 mi
10:54 AM73 °FSunny.8 mph48%30.14 "Hg10 mi
9:54 AM71 °FSunny.8 mph49%30.14 "Hg10 mi
Weather by CustomWeather, © 2016

See weather overviewHow to use our weather pages